Regional Weather Roundup
Issued by NWS Goodland, KS

Home | Current Version | Previous Version | Text Only | Print | Product List | Glossary On
Versions: 1 2 3 4 5 6 7 8 9 10 11 12 13 14 15 16 17 18 19 20 21 22 23 24 25 26 27 28 29 30 31 32 33 34 35 36 37 38 39 40 41 42 43 44 45 46 47 48 49 50
000
ASUS43 KGLD 262059
RWRGLD

GOODLAND FORECAST AREA HOURLY WEATHER ROUNDUP
NATIONAL WEATHER SERVICE GOODLAND KS
200 PM MST MON JAN 26 2015

...OFFICIAL OBSERVATIONS...

CITY           SKY/WX    TMP DP  RH WIND       PRES   REMARKS
GOODLAND KS    SUNNY     68  30  24 NW17      30.13F
HILL CITY KS   SUNNY     71  31  22 NW21G26   30.04F
IMPERIAL NEB   SUNNY     68  28  22 N21G29    30.09F
MCCOOK NEB     SUNNY     72  28  19 NW20G28   30.05S
AKRON CO       SUNNY     62  30  29 W8        30.17F
BURLINGTON CO  SUNNY     67  29  24 NW12      30.17F
LIMON CO       NOT AVBL
$$

...UNOFFICIAL OBSERVATIONS...

CITY           SKY/WX    TMP DP  RH WIND       PRES   REMARKS
COLBY KS       SUNNY     70  37  30 NW15G21   30.10F
GOVE KS          N/A     70  32  24 MISG        N/A
NORTON KS      SUNNY     70  23  17 NW22G29   30.02S
SHARON SPRINGS   N/A     68  33  27 N14G22      N/A
KIT CARSON CO    N/A     67  30  25 MISG        N/A
YUMA CO          N/A     65  30  27 W12G20      N/A
$$



USA.gov is the U.S. government's official web portal to all federal, state and local government web resources and services.